Wind_Speed
12 13 13 13 13 13 12 12 12 11 11 11 10 10 11 11 11 11 11 11 11 11 11 11 12 12 13 13 13 13 14 15 15 16 16 17 17 17 18 19 19 19 21
13 13 13 13 13 13 13 13 12 12 11 11 11 11 11 11 11 11 11 12 12 12 12 13 13 13 14 14 14 15 16 16 16 17 17 18 18 18 19 19 20 21 21
12 12 13 13 13 12 12 12 12 11 11 11 11 11 12 12 12 12 12 13 13 13 13 14 14 14 15 15 16 16 17 17 18 18 19 19 20 20 20 21 21 21 22
13 13 13 13 13 13 12 12 13 12 12 12 13 13 13 13 13 13 13 14 14 14 14 15 15 16 17 17 17 17 18 18 19 19 20 20 21 21 22 22 22 22 22
14 14 13 13 14 13 13 13 13 13 13 14 14 14 14 14 14 14 15 15 15 16 16 16 17 18 18 18 19 19 19 20 20 20 21 21 22 22 23 23 23 23 23
14 14 14 14 14 14 14 14 14 14 14 15 14 14 15 15 16 16 16 16 16 17 17 17 18 18 18 19 20 20 21 21 21 22 22 22 23 23 24 24 24 24 24
15 14 15 15 15 15 15 16 16 16 16 16 15 15 16 16 16 16 17 17 17 18 18 18 19 19 20 21 21 22 22 23 23 23 23 24 24 24 25 25 25 25 25
15 15 15 16 16 16 17 17 17 17 17 16 17 17 17 17 17 17 17 18 18 18 19 19 20 21 22 22 23 23 23 23 23 24 24 25 25 25 26 26 25 25 25
15 16 16 17 17 17 17 18 18 18 18 18 18 18 18 18 18 18 18 18 18 19 20 21 21 22 23 23 23 23 23 24 24 24 25 26 26 26 26 26 26 26 26
15 15 15 16 17 17 18 18 18 18 18 19 18 19 19 18 18 19 19 19 20 20 21 22 22 23 23 23 23 23 23 24 24 25 26 27 27 27 27 27 27 27 27
16 16 15 16 16 17 17 18 18 18 19 19 19 19 19 19 20 20 21 21 21 22 22 23 23 24 23 24 24 24 25 25 26 26 27 28 28 28 28 29 29 29 28
17 17 17 17 18 18 18 19 19 19 19 19 20 20 20 20 21 21 22 22 23 23 23 24 24 24 24 24 24 25 26 27 27 28 28 28 29 29 29 29 30 30 30
18 18 18 18 18 19 19 20 20 20 20 20 21 21 21 22 22 22 23 23 24 24 25 25 26 25 25 26 26 26 27 28 28 29 29 30 30 30 30 31 31 31 31
19 20 20 20 20 20 21 21 21 21 22 22 22 23 23 24 24 24 24 25 26 27 27 27 27 26 26 27 28 28 29 29 30 31 31 31 31 31 32 32 33 33 33
21 21 22 22 22 22 23 23 23 23 24 24 24 25 25 25 25 26 26 27 28 28 28 28 28 28 28 29 30 30 31 31 32 33 33 33 33 33 34 34 35 35 36
22 23 24 24 24 24 24 24 24 25 25 26 26 26 26 26 26 27 28 28 29 29 29 29 29 30 30 31 31 32 33 34 34 34 35 35 35 35 35 36 37 37 37
24 24 24 25 25 25 26 26 26 27 27 28 27 28 28 28 29 29 30 31 31 31 30 30 31 32 32 32 33 34 35 36 36 36 36 36 36 37 38 38 38 39 39
25 26 26 26 27 27 27 27 28 28 28 28 28 29 30 30 31 32 33 33 33 32 32 32 33 34 35 35 35 36 37 37 38 38 38 38 38 39 39 39 40 41 41
26 27 28 27 28 28 28 28 29 29 29 29 30 30 31 32 32 33 34 34 34 33 33 34 35 35 37 37 37 38 38 38 39 39 40 40 39 40 40 41 41 42 42
27 27 28 28 28 28 29 29 30 30 31 31 32 32 32 33 34 34 34 34 34 34 35 35 36 37 37 38 38 38 39 39 39 40 40 40 40 41 41 42 42 43 43
27 27 28 28 29 29 30 30 31 31 31 32 33 34 34 35 35 35 35 35 35 36 36 37 38 38 38 39 39 40 40 41 41 41 41 41 41 41 42 43 43 44 44
29 29 29 29 30 31 31 32 32 33 33 34 34 34 34 34 35 35 36 36 37 37 37 38 38 38 38 39 40 41 41 41 41 41 41 41 41 42 42 43 44 45 45
31 31 31 31 32 32 33 33 33 33 33 34 35 35 35 35 36 37 36 36 37 37 38 38 39 39 39 40 41 42 42 42 42 42 42 42 42 43 43 44 45 45 45
33 32 32 32 32 32 33 33 34 34 35 36 36 36 36 36 36 36 36 36 37 38 39 40 40 40 41 42 43 43 43 43 43 43 42 43 44 44 45 45 45 45 45
34 33 33 34 35 35 35 35 35 36 36 37 37 37 37 37 37 37 37 37 38 39 40 40 41 42 42 43 43 43 43 43 43 43 43 44 44 45 45 45 45 45 46
36 36 36 36 36 36 37 36 37 37 37 37 38 38 38 38 38 38 39 39 39 40 40 41 42 42 42 43 43 44 44 44 44 44 45 44 45 45 46 46 45 46 46
Wind_Direction
241 243 244 245 246 246 247 248 253 257 265 271 276 283 287 289 293 297 301 304 305 305 305 306 307 309 311 312 314 315 315 314 313 311 310 309 307 304 304 302 300 296 295
243 245 246 246 246 246 247 250 254 260 264 267 274 281 287 291 294 297 300 302 302 302 304 305 307 308 308 309 311 312 313 313 312 311 310 309 308 307 306 305 303 300 296
246 249 247 246 246 247 248 252 258 259 260 268 274 281 285 290 293 296 299 301 300 300 302 304 306 308 308 308 309 310 311 312 312 311 310 309 308 308 307 305 303 302 300
247 251 250 250 250 252 252 255 260 260 263 271 276 280 283 287 292 294 297 299 300 300 301 302 304 305 306 307 308 310 312 313 313 312 311 310 309 308 308 306 304 302 302
247 251 251 252 253 254 256 259 262 263 266 272 277 280 283 287 291 296 296 297 298 299 299 300 301 302 304 306 307 308 310 311 311 311 311 310 310 309 308 307 305 303 302
248 252 253 254 255 256 259 263 264 265 267 272 275 277 281 285 290 294 296 296 296 298 299 299 299 300 302 304 305 306 307 308 309 309 309 309 309 309 308 307 306 303 301
250 252 254 255 257 259 261 263 265 265 267 269 271 276 281 285 288 291 295 296 295 296 298 299 300 301 302 302 303 303 304 306 307 308 308 308 308 308 308 307 305 304 302
252 254 256 256 258 261 262 264 265 266 266 267 270 274 279 284 286 288 291 294 297 297 297 298 299 301 303 303 303 304 305 305 306 307 307 308 308 308 307 306 305 305 304
257 259 260 258 259 261 264 266 266 265 266 268 271 275 278 282 286 288 291 294 296 297 298 299 299 301 303 303 304 304 306 307 306 306 307 308 308 307 307 307 306 306 305
259 262 264 264 262 262 264 267 266 263 266 269 271 275 277 280 284 287 289 291 293 296 298 300 302 302 303 303 304 305 306 307 307 308 308 308 308 308 307 306 305 305 304
260 263 265 266 265 265 267 269 269 268 270 271 273 276 278 280 283 286 288 290 292 295 297 299 299 301 302 303 303 304 305 306 306 307 308 308 307 306 304 303 303 303 303
261 263 265 267 267 266 268 271 271 271 271 273 275 276 278 280 282 285 288 290 292 294 295 298 299 299 300 301 302 304 306 306 305 305 306 306 305 304 304 303 303 303 303
263 265 266 267 269 270 270 272 272 271 272 274 276 277 279 281 283 285 288 290 292 293 295 297 299 299 300 301 303 305 305 305 304 305 306 305 304 304 303 304 303 302 303
264 266 267 268 270 271 273 274 273 272 273 275 276 278 279 282 284 285 286 288 291 292 293 295 297 297 299 300 301 302 303 303 303 303 304 304 304 303 303 302 302 302 302
264 267 268 270 272 273 274 276 276 273 274 275 276 278 280 282 283 285 287 288 290 292 293 295 296 296 298 298 299 299 300 301 301 302 302 301 301 302 302 302 302 301 300
265 267 269 270 272 274 276 278 277 275 274 276 278 279 279 279 281 284 286 287 289 291 293 294 294 295 295 297 299 300 300 301 301 300 300 300 300 301 301 301 301 301 300
266 268 270 271 272 274 275 276 276 276 277 277 278 279 279 279 281 283 285 287 288 290 291 292 293 293 295 296 297 298 300 301 300 300 300 300 300 300 301 301 300 300 300
268 270 271 271 272 274 275 275 276 276 276 276 277 279 280 280 281 283 285 286 288 289 289 290 291 293 294 295 295 297 299 299 299 299 299 299 298 299 300 300 300 300 300
269 271 272 272 273 275 275 274 275 276 276 276 277 278 280 281 282 283 285 286 288 288 288 289 291 292 294 294 295 296 297 298 299 298 298 298 298 299 299 299 300 300 300
270 272 274 275 276 276 276 276 277 278 278 278 279 280 281 281 282 283 285 286 287 288 288 289 291 292 293 294 295 296 297 297 298 298 298 298 298 298 299 299 300 300 300
271 272 274 276 278 280 280 279 279 280 281 281 282 282 283 283 283 284 284 285 286 288 289 290 291 292 293 294 295 296 296 297 298 298 297 297 298 299 300 300 301 301 301
272 273 274 276 278 279 280 280 281 282 282 282 283 284 285 285 285 284 284 285 286 288 289 290 291 292 293 294 295 296 297 298 298 298 298 298 299 299 300 301 301 301 301
272 273 274 275 277 279 281 281 281 281 282 283 284 285 286 286 285 284 285 286 287 288 289 290 292 293 294 294 295 296 297 298 298 298 298 298 299 300 300 301 302 302 302
271 273 274 276 277 279 280 281 281 282 283 284 285 286 286 286 285 285 285 286 288 289 289 290 291 292 293 293 294 296 296 297 298 298 298 299 299 300 301 301 301 302 302
270 272 274 277 278 279 279 280 282 283 283 284 285 285 285 284 284 284 285 286 287 288 290 290 292 292 293 294 295 295 296 296 296 297 298 298 299 301 301 301 302 302 302
271 273 275 276 278 279 280 281 282 283 283 284 285 285 284 283 283 284 285 286 288 289 290 291 293 294 294 294 294 295 296 296 296 296 297 298 299 301 302 302 302 302 303
Height
5860 5861 5862 5863 5863 5864 5865 5865 5866 5867 5867 5867 5867 5866 5866 5865 5865 5864 5863 5862 5861 5860 5858 5857 5856 5854 5852 5851 5849 5847 5845 5844 5842 5840 5837 5835 5833 5831 5829 5827 5825 5823 5821
5857 5858 5859 5860 5861 5861 5862 5863 5863 5864 5864 5864 5864 5864 5863 5863 5862 5861 5860 5859 5858 5857 5856 5854 5853 5851 5849 5848 5846 5844 5842 5840 5838 5836 5834 5831 5829 5827 5825 5822 5820 5818 5815
5854 5855 5856 5857 5858 5858 5859 5860 5860 5861 5861 5861 5861 5861 5861 5860 5859 5858 5858 5857 5855 5854 5853 5851 5850 5848 5846 5844 5842 5840 5838 5836 5834 5832 5830 5827 5825 5822 5820 5817 5815 5812 5810
5852 5852 5853 5854 5855 5855 5856 5857 5858 5858 5858 5858 5858 5858 5857 5857 5856 5855 5854 5853 5852 5851 5850 5848 5846 5845 5843 5841 5839 5837 5835 5832 5830 5828 5825 5822 5820 5817 5815 5812 5809 5807 5804
5849 5849 5850 5851 5852 5852 5853 5854 5854 5855 5855 5855 5855 5854 5854 5853 5853 5852 5851 5850 5849 5847 5846 5844 5843 5841 5839 5837 5835 5833 5831 5828 5826 5823 5820 5818 5815 5812 5809 5806 5804 5801 5798
5845 5846 5847 5848 5848 5849 5850 5850 5851 5851 5851 5851 5851 5851 5850 5850 5849 5848 5847 5846 5845 5843 5842 5840 5838 5837 5835 5833 5830 5828 5826 5824 5821 5818 5815 5813 5810 5807 5804 5801 5798 5795 5793
5841 5842 5843 5844 5845 5845 5846 5847 5847 5847 5847 5847 5847 5847 5846 5846 5845 5844 5843 5842 5840 5839 5837 5836 5834 5832 5830 5828 5826 5823 5821 5818 5816 5813 5810 5807 5804 5801 5798 5795 5792 5789 5786
5838 5839 5839 5840 5841 5841 5842 5842 5842 5843 5843 5843 5843 5843 5842 5841 5840 5840 5839 5837 5836 5834 5833 5831 5829 5827 5825 5823 5821 5818 5815 5813 5810 5807 5804 5801 5798 5794 5791 5788 5785 5782 5780
5834 5834 5835 5836 5836 5837 5837 5838 5838 5838 5838 5838 5838 5838 5837 5837 5836 5835 5834 5833 5831 5830 5828 5826 5824 5822 5820 5817 5815 5813 5810 5807 5804 5801 5798 5794 5791 5788 5785 5782 5779 5776 5773
5830 5830 5830 5831 5831 5832 5833 5833 5833 5833 5833 5833 5833 5833 5832 5832 5831 5830 5829 5828 5826 5825 5823 5821 5819 5816 5814 5812 5809 5807 5804 5801 5798 5795 5792 5788 5785 5782 5778 5775 5772 5769 5766
5825 5826 5826 5826 5827 5827 5828 5828 5828 5828 5828 5828 5828 5828 5827 5827 5826 5825 5823 5822 5821 5819 5817 5815 5813 5811 5808 5806 5803 5801 5798 5795 5792 5789 5785 5782 5778 5775 5772 5768 5765 5762 5759
5821 5821 5821 5822 5822 5822 5822 5822 5822 5822 5822 5822 5822 5822 5822 5821 5820 5819 5817 5816 5815 5813 5811 5809 5807 5804 5802 5799 5797 5794 5791 5788 5785 5782 5779 5775 5772 5768 5765 5761 5758 5755 5752
5816 5816 5816 5817 5817 5817 5817 5817 5816 5817 5817 5817 5816 5816 5816 5815 5814 5813 5811 5810 5808 5806 5805 5802 5800 5798 5795 5792 5790 5787 5784 5781 5778 5775 5771 5768 5764 5761 5757 5754 5750 5747 5744
5810 5811 5811 5811 5811 5811 5811 5811 5811 5811 5811 5810 5810 5810 5809 5808 5807 5806 5805 5803 5802 5800 5798 5795 5793 5791 5788 5785 5783 5780 5777 5774 5770 5767 5764 5760 5756 5753 5749 5746 5742 5739 5736
5805 5805 5805 5805 5805 5805 5805 5804 5804 5804 5804 5804 5803 5803 5802 5801 5800 5799 5798 5796 5794 5792 5790 5788 5786 5783 5781 5778 5775 5772 5769 5766 5762 5759 5755 5751 5748 5744 5741 5737 5733 5730 5726
5799 5799 5799 5799 5799 5798 5798 5797 5797 5797 5796 5796 5795 5795 5794 5794 5792 5791 5790 5788 5786 5784 5782 5780 5778 5775 5773 5770 5767 5764 5760 5757 5753 5749 5746 5742 5739 5735 5731 5727 5723 5720 5716
5792 5792 5792 5792 5792 5791 5791 5790 5790 5789 5789 5788 5787 5787 5786 5785 5784 5783 5781 5779 5778 5776 5774 5772 5769 5767 5764 5761 5758 5755 5751 5748 5744 5740 5736 5732 5729 5725 5721 5717 5713 5709 5705
5785 5785 5785 5784 5784 5783 5783 5782 5782 5781 5781 5780 5779 5778 5777 5776 5775 5773 5772 5770 5768 5767 5765 5763 5760 5758 5755 5752 5748 5745 5742 5738 5734 5730 5726 5722 5718 5714 5710 5706 5702 5698 5694
5777 5777 5777 5776 5776 5775 5775 5774 5774 5773 5772 5771 5770 5769 5768 5766 5765 5764 5762 5760 5758 5757 5755 5753 5750 5747 5744 5741 5738 5735 5731 5728 5724 5720 5715 5711 5707 5703 5699 5695 5691 5686 5682
5768 5768 5768 5768 5767 5767 5766 5765 5765 5764 5763 5762 5761 5760 5758 5757 5755 5753 5752 5749 5748 5746 5744 5742 5739 5737 5734 5731 5727 5724 5721 5717 5713 5709 5705 5700 5696 5692 5688 5683 5679 5674 5670
5760 5760 5760 5759 5759 5758 5757 5756 5756 5755 5754 5752 5751 5750 5748 5746 5745 5743 5741 5739 5737 5735 5733 5731 5728 5726 5723 5720 5717 5713 5710 5706 5702 5698 5693 5689 5685 5681 5676 5672 5667 5662 5658
5751 5751 5751 5750 5750 5749 5748 5747 5746 5745 5744 5742 5741 5739 5737 5736 5733 5732 5730 5728 5726 5724 5722 5720 5717 5714 5711 5708 5705 5702 5698 5694 5690 5686 5682 5678 5673 5669 5665 5660 5655 5650 5646
5742 5742 5742 5741 5740 5739 5738 5737 5736 5735 5734 5732 5730 5728 5727 5725 5723 5721 5719 5717 5715 5713 5711 5708 5706 5703 5700 5697 5693 5690 5686 5682 5678 5674 5670 5666 5662 5658 5653 5648 5643 5638 5634
5732 5732 5732 5731 5730 5729 5729 5727 5726 5725 5723 5721 5719 5717 5715 5713 5712 5710 5708 5706 5704 5701 5699 5696 5694 5691 5688 5684 5681 5677 5673 5670 5666 5662 5658 5654 5650 5645 5641 5636 5631 5626 5621
5722 5721 5721 5720 5720 5719 5718 5716 5715 5713 5712 5710 5708 5706 5704 5702 5700 5698 5696 5694 5692 5689 5687 5684 5681 5678 5675 5672 5668 5664 5661 5657 5653 5649 5645 5641 5637 5633 5628 5623 5618 5614 5609
5711 5711 5710 5709 5708 5707 5706 5705 5703 5702 5700 5698 5696 5694 5692 5690 5688 5687 5685 5682 5680 5678 5675 5672 5669 5666 5662 5659 5655 5652 5648 5645 5641 5637 5633 5629 5625 5620 5615 5610 5606 5601 5596